RJA191 OJAI-VABB

Flight info

Callsign RJA191
Flight time N/A
Altitude 41000
Route KIPAS R652 GRY W303 ORKAS N318 NEVOL Q255 LUDEP P559 ALPOT M691 SILBA L308 EGREX P559 DANOB Y604 BOTOB P559 NALPO/N0498F350 P559 AMBOV Q322 LOVEM M677 KURTU Q321 NOLSU/N0485F410 P307 PARAR N571 SUGID KETOR2A
Aircraft B788/H-SDE1E2E3FGHIJ2J3J4J5M1RWXY/LB1D1

Departure

Time 2026-04-30 07:37
Airport Queen Alia International Airport (OJAI)

Arrival

Time N/A
Airport Chhatrapati Shivaji Maharaj International Airport (VABB)
Time Latitude Longitude Altitude Speed Heading
2026-04-30 07:17 31.72442 35.98558 2387 ft 0 kts 169°
2026-04-30 07:27 31.72455 35.98555 2387 ft 2 kts 169°
2026-04-30 07:27 31.72466 35.98549 2395 ft 3 kts 149°
2026-04-30 07:28 31.72468 35.98547 2395 ft 3 kts 155°
2026-04-30 07:28 31.72454 35.98555 2387 ft 1 kts 145°
2026-04-30 07:28 31.72448 35.98561 2387 ft 1 kts 114°
2026-04-30 07:28 31.72445 35.98570 2392 ft 1 kts 88°
2026-04-30 07:29 31.72446 35.98575 2391 ft 0 kts 83°
2026-04-30 07:31 31.72447 35.98584 2388 ft 3 kts 81°
2026-04-30 07:31 31.72454 35.98630 2388 ft 9 kts 79°
2026-04-30 07:31 31.72469 35.98728 2391 ft 15 kts 81°
2026-04-30 07:32 31.72493 35.98868 2395 ft 17 kts 65°
2026-04-30 07:32 31.72567 35.98909 2396 ft 10 kts 354°
2026-04-30 07:32 31.72626 35.98897 2396 ft 8 kts 342°
2026-04-30 07:32 31.72667 35.98862 2394 ft 6 kts 293°
2026-04-30 07:33 31.72666 35.98806 2395 ft 9 kts 262°
2026-04-30 07:33 31.72653 35.98706 2395 ft 16 kts 262°
2026-04-30 07:33 31.72630 35.98560 2392 ft 21 kts 259°
2026-04-30 07:33 31.72601 35.98369 2392 ft 26 kts 260°
2026-04-30 07:34 31.72567 35.98136 2386 ft 31 kts 261°
2026-04-30 07:34 31.72531 35.97880 2384 ft 32 kts 261°
2026-04-30 07:34 31.72496 35.97627 2382 ft 31 kts 261°
2026-04-30 07:34 31.72458 35.97379 2381 ft 30 kts 259°
2026-04-30 07:35 31.72420 35.97139 2379 ft 30 kts 261°
2026-04-30 07:35 31.72524 35.96997 2378 ft 25 kts 352°
2026-04-30 07:35 31.72670 35.97011 2381 ft 17 kts 44°
2026-04-30 07:35 31.72692 35.97065 2382 ft 0 kts 82°
2026-04-30 07:36 31.72704 35.97150 2382 ft 37 kts 79°
2026-04-30 07:37 31.72794 35.97757 2383 ft 113 kts 80°
2026-04-30 07:37 31.72963 35.98917 2500 ft 166 kts 75°
2026-04-30 07:37 31.73125 36.00358 2961 ft 193 kts 90°
2026-04-30 07:37 31.73091 36.02041 3614 ft 220 kts 86°
2026-04-30 07:38 31.73285 36.03872 4383 ft 239 kts 83°
2026-04-30 07:38 31.73448 36.05928 5060 ft 265 kts 86°
2026-04-30 07:38 31.73553 36.08110 6193 ft 269 kts 88°
2026-04-30 07:38 31.73662 36.10329 7239 ft 276 kts 88°
2026-04-30 07:39 31.73793 36.12616 8222 ft 284 kts 89°
2026-04-30 07:39 31.73589 36.14915 9170 ft 285 kts 114°
2026-04-30 07:39 31.72580 36.16894 10174 ft 282 kts 138°
2026-04-30 07:39 31.71041 36.18429 10698 ft 303 kts 145°
2026-04-30 07:40 31.69273 36.19977 11043 ft 331 kts 146°
2026-04-30 07:40 31.67353 36.21643 11524 ft 351 kts 145°
2026-04-30 07:40 31.65400 36.23402 12522 ft 356 kts 144°
2026-04-30 07:40 31.63420 36.25192 13431 ft 363 kts 143°
2026-04-30 07:41 31.61418 36.26977 14279 ft 369 kts 143°
2026-04-30 07:41 31.59352 36.28810 15097 ft 375 kts 143°
2026-04-30 07:41 31.57258 36.30675 15925 ft 381 kts 143°
2026-04-30 07:41 31.55129 36.32577 16714 ft 387 kts 143°
2026-04-30 07:42 31.52970 36.34500 17497 ft 393 kts 144°
2026-04-30 07:42 31.50768 36.36458 18270 ft 399 kts 144°
2026-04-30 07:42 31.48540 36.38439 18953 ft 404 kts 144°
2026-04-30 07:42 31.46310 36.40422 19636 ft 409 kts 144°
2026-04-30 07:43 31.44030 36.42447 20294 ft 414 kts 144°
2026-04-30 07:43 31.41723 36.44495 20927 ft 419 kts 144°
2026-04-30 07:43 31.39389 36.46565 21564 ft 424 kts 144°
2026-04-30 07:43 31.37026 36.48666 22177 ft 429 kts 143°
2026-04-30 07:44 31.34918 36.51161 22769 ft 436 kts 128°
2026-04-30 07:44 31.33374 36.54237 23345 ft 443 kts 113°
2026-04-30 07:44 31.32502 36.57708 23860 ft 449 kts 98°
2026-04-30 07:44 31.32386 36.61373 24315 ft 453 kts 83°
2026-04-30 07:45 31.32823 36.65046 24727 ft 458 kts 81°
2026-04-30 07:45 31.33332 36.68740 25183 ft 462 kts 79°
2026-04-30 07:45 31.33860 36.72466 25614 ft 466 kts 80°
2026-04-30 07:45 31.34365 36.76231 26035 ft 471 kts 81°
2026-04-30 07:46 31.34855 36.79981 26454 ft 475 kts 80°
2026-04-30 07:46 31.35367 36.83813 26869 ft 479 kts 80°
2026-04-30 07:46 31.35892 36.87681 27276 ft 483 kts 80°
2026-04-30 07:46 31.36415 36.91586 27673 ft 488 kts 80°
2026-04-30 07:47 31.36936 36.95528 28051 ft 492 kts 80°
2026-04-30 07:47 31.37460 36.99496 28433 ft 496 kts 80°
2026-04-30 07:47 31.37994 37.03511 28815 ft 500 kts 80°
2026-04-30 07:47 31.38528 37.07541 29191 ft 504 kts 80°
2026-04-30 07:48 31.38883 37.10237 29424 ft 506 kts 80°
2026-04-30 07:48 31.39419 37.14332 29777 ft 510 kts 80°
2026-04-30 07:48 31.40123 37.19796 30226 ft 515 kts 81°
2026-04-30 07:48 31.40585 37.23965 30508 ft 518 kts 87°
2026-04-30 07:49 31.40573 37.26766 30726 ft 520 kts 96°
2026-04-30 07:49 31.39610 37.32304 31079 ft 521 kts 112°
2026-04-30 07:49 31.38694 37.34904 31262 ft 520 kts 118°
2026-04-30 07:49 31.37130 37.38735 31502 ft 524 kts 118°
2026-04-30 07:50 31.35536 37.42584 31769 ft 526 kts 118°
2026-04-30 07:50 31.33929 37.46453 32033 ft 529 kts 118°
2026-04-30 07:50 31.32327 37.50342 32296 ft 532 kts 118°
2026-04-30 07:50 31.30186 37.55538 32630 ft 536 kts 119°
2026-04-30 07:51 31.29087 37.58190 32795 ft 537 kts 119°
2026-04-30 07:51 31.27450 37.62129 33044 ft 540 kts 119°
2026-04-30 07:51 31.25809 37.66087 33261 ft 542 kts 119°
2026-04-30 07:51 31.24183 37.70011 33578 ft 543 kts 119°
2026-04-30 07:52 31.22536 37.73977 33916 ft 543 kts 120°
2026-04-30 07:52 31.20883 37.77945 34224 ft 543 kts 120°
2026-04-30 07:52 31.19231 37.81910 34520 ft 543 kts 120°
2026-04-30 07:52 31.17578 37.85876 34815 ft 543 kts 120°
2026-04-30 07:53 31.15925 37.89839 35117 ft 542 kts 120°
2026-04-30 07:53 31.14269 37.93799 35401 ft 543 kts 120°
2026-04-30 07:53 31.12613 37.97757 35688 ft 542 kts 120°
2026-04-30 07:53 31.10959 38.01708 35962 ft 543 kts 120°
2026-04-30 07:54 31.09301 38.05664 36254 ft 542 kts 120°
2026-04-30 07:54 31.07642 38.09616 36538 ft 542 kts 120°
2026-04-30 07:54 31.05981 38.13569 36827 ft 542 kts 120°
2026-04-30 07:54 31.04324 38.17509 37105 ft 542 kts 120°
2026-04-30 07:55 31.02656 38.21471 37383 ft 542 kts 120°
2026-04-30 07:55 31.00993 38.25416 37683 ft 542 kts 120°
2026-04-30 07:55 30.99327 38.29364 37959 ft 542 kts 120°
2026-04-30 07:55 30.97660 38.33311 38232 ft 542 kts 121°
2026-04-30 07:56 30.95996 38.37247 38497 ft 541 kts 121°
2026-04-30 07:56 30.94331 38.41181 38761 ft 541 kts 121°
2026-04-30 07:56 30.92664 38.45115 38982 ft 541 kts 121°
2026-04-30 07:56 30.90996 38.49046 39190 ft 541 kts 121°
2026-04-30 07:57 30.89329 38.52972 39403 ft 541 kts 121°
2026-04-30 07:57 30.87682 38.56845 39617 ft 541 kts 121°
2026-04-30 07:57 30.86009 38.60779 39827 ft 541 kts 121°
2026-04-30 07:57 30.84339 38.64698 40030 ft 541 kts 121°
2026-04-30 07:58 30.82667 38.68619 40243 ft 540 kts 121°
2026-04-30 07:58 30.80996 38.72533 40457 ft 540 kts 121°
2026-04-30 07:58 30.79323 38.76448 40663 ft 540 kts 121°
2026-04-30 07:58 30.77656 38.80346 40932 ft 538 kts 121°
2026-04-30 07:59 30.75983 38.84259 41060 ft 540 kts 121°
2026-04-30 07:59 30.72615 38.92118 41062 ft 541 kts 121°
2026-04-30 08:00 30.67623 39.03737 41068 ft 537 kts 122°
2026-04-30 08:00 30.64285 39.11488 41072 ft 536 kts 122°
2026-04-30 08:01 30.60937 39.19243 41076 ft 537 kts 122°
2026-04-30 08:01 30.57582 39.27002 41088 ft 537 kts 122°
2026-04-30 08:02 30.52548 39.38609 41098 ft 537 kts 122°
2026-04-30 08:03 30.45834 39.54038 41098 ft 539 kts 122°
2026-04-30 08:04 30.42449 39.61793 41100 ft 538 kts 122°
2026-04-30 08:04 30.39241 39.69666 41103 ft 540 kts 120°
2026-04-30 08:05 30.36069 39.77557 41105 ft 541 kts 120°
2026-04-30 08:05 30.32953 39.85444 41101 ft 541 kts 120°
2026-04-30 08:06 30.29787 39.93347 41096 ft 541 kts 120°
2026-04-30 08:06 30.26632 40.01257 41094 ft 541 kts 120°
2026-04-30 08:07 30.23460 40.09164 41090 ft 541 kts 120°
2026-04-30 08:07 30.20288 40.17068 41090 ft 542 kts 121°
2026-04-30 08:08 30.17122 40.24937 41090 ft 543 kts 121°
2026-04-30 08:08 30.13930 40.32852 41086 ft 543 kts 121°
2026-04-30 08:09 30.10740 40.40749 41086 ft 543 kts 121°
2026-04-30 08:09 30.07530 40.48677 41081 ft 544 kts 121°
2026-04-30 08:10 30.04319 40.56592 41081 ft 544 kts 121°
2026-04-30 08:10 30.01100 40.64508 41081 ft 545 kts 121°
2026-04-30 08:11 29.97878 40.72419 41082 ft 545 kts 121°
2026-04-30 08:11 29.94662 40.80294 41080 ft 545 kts 121°
2026-04-30 08:12 29.91427 40.88204 41077 ft 545 kts 121°
2026-04-30 08:12 29.88192 40.96091 41075 ft 545 kts 121°
2026-04-30 08:13 29.84945 41.03995 41072 ft 546 kts 122°
2026-04-30 08:13 29.81686 41.11911 41075 ft 546 kts 122°
2026-04-30 08:14 29.78426 41.19814 41077 ft 546 kts 122°
2026-04-30 08:14 29.75180 41.27663 41066 ft 546 kts 122°
2026-04-30 08:15 29.72312 41.35799 41081 ft 552 kts 115°
2026-04-30 08:15 29.69727 41.44136 41070 ft 553 kts 115°
2026-04-30 08:16 29.67122 41.52467 41067 ft 553 kts 115°
2026-04-30 08:16 29.64523 41.60795 41066 ft 553 kts 116°
2026-04-30 08:17 29.61911 41.69116 41057 ft 553 kts 116°
2026-04-30 08:17 29.59301 41.77426 41051 ft 553 kts 116°
2026-04-30 08:18 29.56698 41.85686 41057 ft 554 kts 116°
2026-04-30 08:18 29.54072 41.94002 41051 ft 554 kts 116°
2026-04-30 08:19 29.51435 42.02329 41053 ft 554 kts 116°
2026-04-30 08:19 29.48791 42.10658 41051 ft 556 kts 116°
2026-04-30 08:20 29.46134 42.19008 41047 ft 557 kts 116°
2026-04-30 08:20 29.43553 42.27102 41045 ft 557 kts 116°
2026-04-30 08:21 29.40878 42.35467 41042 ft 557 kts 116°
2026-04-30 08:21 29.38201 42.43819 41040 ft 558 kts 116°
2026-04-30 08:22 29.35534 42.52118 41034 ft 558 kts 116°
2026-04-30 08:22 29.32842 42.60475 41038 ft 558 kts 116°
2026-04-30 08:23 29.30149 42.68813 41038 ft 557 kts 116°
2026-04-30 08:23 29.27449 42.77154 41029 ft 558 kts 116°
2026-04-30 08:24 29.24762 42.85433 41030 ft 558 kts 117°
2026-04-30 08:24 29.22048 42.93777 41024 ft 559 kts 117°
2026-04-30 08:25 29.19334 43.02100 41028 ft 558 kts 117°
2026-04-30 08:25 29.16591 43.10403 41046 ft 555 kts 121°
2026-04-30 08:26 29.12901 43.18021 41052 ft 546 kts 128°
2026-04-30 08:26 29.09050 43.25518 41048 ft 547 kts 128°